This is the latest recevied weather packets stored in our database for station/object KI4BIY. If no packets are shown the sender has not sent any weather packets the latest 10 day(s).
| Time | Temp. | Humidity | Pressure | Rain* | Wind** | Luminosity | Snow |
|---|---|---|---|---|---|---|---|
| 1777908633 | 23.33° C | 56% | 1013 hPa | 0 mm | - | 793 W/m² | - |
| 1777908329 | 23.33° C | 56% | 1012.8 hPa | 0 mm | - | 777 W/m² | - |
| 1777908025 | 23.33° C | 56% | 1012.9 hPa | 0 mm | - | 724 W/m² | - |
| 1777907721 | 23.33° C | 56% | 1013.1 hPa | 0 mm | - | 609 W/m² | - |
| 1777907416 | 23.33° C | 56% | 1013 hPa | 0 mm | - | 748 W/m² | - |
| 1777907113 | 23.33° C | 57% | 1012.9 hPa | 0 mm | - | 663 W/m² | - |
| 1777906811 | 23.33° C | 57% | 1013.1 hPa | 0 mm | - | 506 W/m² | - |
| 1777906509 | 22.78° C | 58% | 1012.9 hPa | 0 mm | - | 586 W/m² | - |
| 1777906203 | 22.78° C | 60% | 1013.1 hPa | 0 mm | - | 642 W/m² | - |
| 1777905901 | 22.22° C | 60% | 1013 hPa | 0 mm | - | 549 W/m² | - |
| 1777905597 | 22.22° C | 61% | 1013.1 hPa | 0 mm | - | 564 W/m² | - |
| 1777905294 | 22.22° C | 62% | 1013.2 hPa | 0 mm | - | 498 W/m² | - |
| 1777904991 | 22.22° C | 62% | 1013.4 hPa | 0 mm | - | 506 W/m² | - |
| 1777904689 | 21.67° C | 62% | 1013.3 hPa | 0 mm | - | 547 W/m² | - |
| 1777904385 | 21.67° C | 64% | 1013.2 hPa | 0 mm | - | 500 W/m² | - |
| 1777904082 | 21.67° C | 63% | 1012.7 hPa | 0 mm | - | 488 W/m² | - |
| 1777903779 | 21.11° C | 64% | 1013.3 hPa | 0 mm | - | 512 W/m² | - |
| 1777903476 | 21.11° C | 67% | 1013.3 hPa | 0 mm | - | 398 W/m² | - |
| 1777903172 | 20.56° C | 66% | 1013 hPa | 0 mm | - | 309 W/m² | - |
| 1777902868 | 20.56° C | 66% | 1013.4 hPa | 0 mm | - | 332 W/m² | - |
| 1777902566 | 20.56° C | 66% | 1013 hPa | 0 mm | - | 304 W/m² | - |
| 1777902263 | 20.56° C | 67% | 1013.1 hPa | 0 mm | - | 308 W/m² | - |
| 1777901961 | 20.56° C | 66% | 1013.1 hPa | 0 mm | - | 294 W/m² | - |
| 1777901658 | 20° C | 67% | 1012.9 hPa | 0 mm | - | 292 W/m² | - |
| 1777901355 | 20° C | 69% | 1013 hPa | 0 mm | - | 218 W/m² | - |
* Rain latest hour (hover to see other rain measurements)
** Current wind speed in m/s (hover to see current wind gust speed)